Printer-friendly version

IAU Minor Planet Center

Minor Planet Center

MPEC 2006-T82 : 2006 TA8

The following Minor Planet Electronic Circular may be linked-to from your own Web pages, but must not otherwise be redistributed electronically.


Read MPEC 2006-T81 Read MPEC 2006-T83


M.P.E.C. 2006-T82                                Issued 2006 Oct. 13, 20:51 UT

     The Minor Planet Electronic Circulars contain information on unusual
         minor planets and routine data on comets.  They are published
   on behalf of Commission 20 of the International Astronomical Union by the
          Minor Planet Center, Smithsonian Astrophysical Observatory,
                          Cambridge, MA 02138, U.S.A.

             Prepared using the Tamkin Foundation Computer Network

                              MPC@CFA.HARVARD.EDU
          URL http://cfa-www.harvard.edu/iau/mpc.html  ISSN 1523-6714

                                   2006 TA8

Observations:
     K06T08A* C2006 10 12.30509 02 21 58.65 +60 21 05.2          17.9   ET082704
     K06T08A  C2006 10 12.31628 02 22 21.97 +60 21 06.3          18.0   ET082704
     K06T08A  C2006 10 12.32746 02 22 45.43 +60 21 06.2          17.9   ET082704
     K06T08A  C2006 10 12.33857 02 23 08.64 +60 21 06.1          18.0   ET082704
     K06T08A  C2006 10 13.30962 03 02 16.92 +59 56 34.8          17.9   ET082704
     K06T08A  C2006 10 13.32125 03 02 46.60 +59 55 59.1          18.0   ET082704
     K06T08A  C2006 10 13.33281 03 03 16.28 +59 55 22.4          18.0   ET082704
     K06T08A  C2006 10 13.34432 03 03 45.61 +59 54 44.6          18.6   ET082704
     K06T08A  C2006 10 13.35604 03 04 15.96 +59 54 07.5          17.9   ET082704
     K06T08A  C2006 10 13.81543 03 25 37.59 +59 18 11.6                 ET082J95
     K06T08A  C2006 10 13.81618 03 25 39.77 +59 18 07.6                 ET082J95
     K06T08A  C2006 10 13.81920 03 25 48.50 +59 17 51.9                 ET082J95
     K06T08A  C2006 10 13.82079 03 25 53.05 +59 17 43.8                 ET082J95
     K06T08A  C2006 10 13.82137 03 25 54.67 +59 17 40.8          16.6 R ET082J95

Observer details:
704 Lincoln Laboratory ETS, New Mexico.  Observers M. Bezpalko, L. Manguso,
    D. Torres, R. Kracke, H. Love, G. Spitz, J. Kistler.  Measurers J. Stuart,
    J. Kommers.  1.0-m f/2.15 reflector + CCD.
J95 Great Shefford.  Observer P. Birtwhistle.  0.40-m f/6.0 Schmidt-Cassegrain
    + CCD.

Orbital elements:
2006 TA8                                            PHA, Earth MOID = 0.0052 AU
Epoch 2006 Sept. 22.0 TT = JDT 2454000.5                MPC
M 350.32745              (2000.0)            P               Q
n   0.17755906     Peri.  217.97902     +0.42734915     -0.88667884
a   3.1350237      Node   208.05578     +0.89383828     +0.44369114
e   0.7084846      Incl.   22.04872     +0.13574179     -0.13014919
P   5.55           H   20.9           G   0.15           U   5
Residuals in seconds of arc
061012 704  0.7+  0.9-    061013 704  0.3+  0.3+    061013 J95  0.1-  0.1+
061012 704  0.0   0.1-    061013 704  0.0   0.1-    061013 J95  0.3+  0.1-
061012 704  0.1+  0.1+    061013 704  2.3-  0.8-    061013 J95  0.1+  0.1+
061012 704  0.9-  1.0+    061013 704  1.4-  1.0+    061013 J95  0.2-  0.1+
061013 704  1.7+  0.5+    061013 J95  0.3-  0.2+

Ephemeris:
2006 TA8                 a,e,i = 3.14, 0.71, 22                  q = 0.9139
Date    TT    R. A. (2000) Decl.     Delta      r     Elong.  Phase     V
2006 10 12    02 11.26   +60 18.9    0.0821   1.048   125.6    50.8    17.5
2006 10 13    02 48.90   +60 09.1    0.0735   1.041   124.4    52.3    17.2
2006 10 14    03 34.34   +59 00.6    0.0654   1.034   122.5    54.4    17.0
2006 10 15    04 25.67   +56 15.8    0.0582   1.028   119.9    57.3    16.9
2006 10 16    05 18.43   +51 15.3    0.0523   1.021   116.0    61.4    16.7
2006 10 17    06 07.38   +43 37.2    0.0480   1.015   110.6    66.9    16.7
2006 10 18    06 49.22   +33 41.6    0.0458   1.008   103.7    73.7    16.8
2006 10 19    07 23.26   +22 37.2    0.0461   1.002    96.2    81.2    17.1
2006 10 20    07 50.40   +11 52.3    0.0487   0.996    89.1    88.1    17.4
2006 10 21    08 12.01   +02 29.8    0.0534   0.991    83.0    93.9    17.9
2006 10 22    08 29.35   -05 10.1    0.0596   0.985    78.3    98.3    18.3

2006 11 01    09 45.29   -32 52.4    0.151    0.940    65.3   106.2    20.6
2006 11 11    10 13.43   -38 38.5    0.252    0.916    65.8    99.7    21.3
2006 11 21    10 33.12   -41 01.9    0.348    0.918    68.2    91.2    21.6
2006 12 01    10 49.83   -42 23.2    0.435    0.943    71.5    82.5    21.9
2006 12 11    11 04.05   -43 17.2    0.510    0.991    75.7    74.4    22.0
2006 12 21    11 14.91   -43 52.8    0.571    1.055    80.8    67.0    22.2

Timothy B. Spahr             (C) Copyright 2006 MPC           M.P.E.C. 2006-T82

Read MPEC 2006-T81 Read MPEC 2006-T83


Our Web policy. Index to the CBAT/MPC/ICQ pages.


Valid HTML 4.01!